User: anonymous   Login
Location: Unspecified
(0.0000°N, 0.0000°E)
Time: 01:05:02
(UTC+00:00)
Language:

STARLINK-2570 - Orbit

View from above orbital plane
View from above orbital plane
View from above satellite
View from above satellite

Ground track
Ground track

The orbit is defined by the following mean orbital elements,

1 48405U          26145.53334479 +.00000000 +00000-0 +67037-4 0 00007
2 48405  53.1590 335.4404 0000832 101.9954 258.1140 15.31701826    06
Epoch (UTC): 25 May 2026 12:48:00
Eccentricity: 0.0000832
inclination: 53.1590°
perigee height: 470 km
apogee height: 471 km
right ascension of ascending node: 335.4404°
argument of perigee: 101.9954°
revolutions per day: 15.31701826
mean anomaly at epoch: 258.1140°

The dashed part of the orbit path shows where the satellite is in the earth's shadow,  

DLR